TimeCST,TemperatureF,Dew PointF,Humidity,Sea Level PressureIn,VisibilityMPH,Wind Direction,Wind SpeedMPH,Gust SpeedMPH,PrecipitationIn,Events,Conditions,WindDirDegrees,DateUTC
12:15 AM,30.2,23.0,75,30.26,6.0,Calm,Calm,-,N/A,,Haze,0,2013-01-08 06:15:00
12:35 AM,30.2,23.0,75,30.25,5.0,Calm,Calm,-,N/A,,Haze,0,2013-01-08 06:35:00
1:15 AM,30.2,23.0,75,30.26,7.0,Calm,Calm,-,N/A,,Clear,0,2013-01-08 07:15:00
1:35 AM,30.2,23.0,75,30.25,7.0,North,-9999.0,-,N/A,,Clear,0,2013-01-08 07:35:00
1:55 AM,30.2,23.0,75,30.24,9.0,North,-9999.0,-,N/A,,Clear,0,2013-01-08 07:55:00
2:15 AM,30.2,23.0,75,30.24,7.0,Calm,Calm,-,N/A,,Clear,0,2013-01-08 08:15:00
2:35 AM,30.2,23.0,75,30.24,9.0,Calm,Calm,-,N/A,,Clear,0,2013-01-08 08:35:00
2:55 AM,30.2,23.0,75,30.25,7.0,Calm,Calm,-,N/A,,Clear,0,2013-01-08 08:55:00
3:15 AM,32.0,24.8,75,30.26,8.0,North,-9999.0,-,N/A,,Clear,0,2013-01-08 09:15:00
3:35 AM,30.2,23.0,75,30.26,8.0,Calm,Calm,-,N/A,,Clear,0,2013-01-08 09:35:00
3:55 AM,30.2,23.0,75,30.25,5.0,Calm,Calm,-,N/A,,Haze,0,2013-01-08 09:55:00
4:15 AM,30.2,21.2,69,30.25,7.0,North,-9999.0,-,N/A,,Clear,0,2013-01-08 10:15:00
4:35 AM,30.2,21.2,69,30.26,8.0,Calm,Calm,-,N/A,,Clear,0,2013-01-08 10:35:00
4:55 AM,30.2,23.0,75,30.26,7.0,North,-9999.0,-,N/A,,Clear,0,2013-01-08 10:55:00
5:15 AM,30.2,21.2,69,30.25,8.0,Calm,Calm,-,N/A,,Clear,0,2013-01-08 11:15:00
5:35 AM,30.2,21.2,69,30.26,7.0,Calm,Calm,-,N/A,,Clear,0,2013-01-08 11:35:00
5:55 AM,30.2,23.0,75,30.26,7.0,North,-9999.0,-,N/A,,Clear,0,2013-01-08 11:55:00
6:15 AM,30.2,21.2,69,30.26,6.0,Calm,Calm,-,N/A,,Haze,0,2013-01-08 12:15:00
6:35 AM,30.2,21.2,69,30.27,10.0,Calm,Calm,-,N/A,,Clear,0,2013-01-08 12:35:00
6:55 AM,30.2,21.2,69,30.27,8.0,Calm,Calm,-,N/A,,Clear,0,2013-01-08 12:55:00
7:15 AM,30.2,19.4,64,30.28,7.0,Calm,Calm,-,N/A,,Clear,0,2013-01-08 13:15:00
7:35 AM,32.0,19.4,60,30.30,8.0,North,-9999.0,-,N/A,,Scattered Clouds,0,2013-01-08 13:35:00
7:55 AM,32.0,23.0,69,30.30,6.0,Calm,Calm,-,N/A,,Haze,0,2013-01-08 13:55:00
8:15 AM,33.8,24.8,70,30.30,6.0,Calm,Calm,-,N/A,,Haze,0,2013-01-08 14:15:00
8:35 AM,37.4,24.8,60,30.31,8.0,Calm,Calm,-,N/A,,Clear,0,2013-01-08 14:35:00
8:55 AM,42.8,32.0,66,30.31,9.0,SE,3.5,-,N/A,,Clear,140,2013-01-08 14:55:00
9:15 AM,46.4,32.0,57,30.32,9.0,SE,5.8,-,N/A,,Clear,130,2013-01-08 15:15:00
9:35 AM,48.2,33.8,58,30.32,9.0,SSE,5.8,-,N/A,,Clear,160,2013-01-08 15:35:00
10:15 AM,53.6,37.4,54,30.32,9.0,SSE,6.9,-,N/A,,Clear,150,2013-01-08 16:15:00
10:35 AM,55.4,37.4,51,30.31,9.0,South,8.1,-,N/A,,Clear,170,2013-01-08 16:35:00
10:55 AM,55.4,37.4,51,30.31,10.0,SSE,5.8,-,N/A,,Clear,150,2013-01-08 16:55:00
11:15 AM,55.4,39.2,54,30.29,10.0,South,5.8,-,N/A,,Clear,180,2013-01-08 17:15:00
11:35 AM,55.4,39.2,54,30.30,9.0,South,6.9,-,N/A,,Clear,170,2013-01-08 17:35:00
11:55 AM,59.0,42.8,55,30.28,8.0,South,6.9,-,N/A,,Clear,180,2013-01-08 17:55:00
12:15 PM,57.2,41.0,55,30.26,9.0,South,5.8,-,N/A,,Clear,170,2013-01-08 18:15:00
12:35 PM,60.8,42.8,52,30.26,9.0,South,5.8,-,N/A,,Clear,190,2013-01-08 18:35:00
12:55 PM,59.0,42.8,55,30.25,9.0,South,4.6,-,N/A,,Clear,170,2013-01-08 18:55:00
1:15 PM,57.2,42.8,59,30.24,9.0,Calm,Calm,-,N/A,,Clear,0,2013-01-08 19:15:00
1:35 PM,62.6,46.4,55,30.23,9.0,East,4.6,-,N/A,,Clear,100,2013-01-08 19:35:00
1:55 PM,62.6,46.4,55,30.23,9.0,SE,5.8,-,N/A,,Clear,140,2013-01-08 19:55:00
2:15 PM,62.6,44.6,52,30.22,10.0,SSE,5.8,-,N/A,,Clear,150,2013-01-08 20:15:00
2:35 PM,60.8,44.6,55,30.22,10.0,ESE,5.8,-,N/A,,Partly Cloudy,120,2013-01-08 20:35:00
2:55 PM,60.8,44.6,55,30.22,10.0,ESE,3.5,-,N/A,,Clear,120,2013-01-08 20:55:00
3:15 PM,60.8,44.6,55,30.22,9.0,SE,4.6,-,N/A,,Clear,130,2013-01-08 21:15:00
3:35 PM,60.8,42.8,52,30.22,9.0,Calm,Calm,-,N/A,,Clear,0,2013-01-08 21:35:00
3:55 PM,59.0,42.8,55,30.23,10.0,SE,5.8,-,N/A,,Partly Cloudy,140,2013-01-08 21:55:00
4:35 PM,57.2,41.0,55,30.23,9.0,Calm,Calm,-,N/A,,Mostly Cloudy,0,2013-01-08 22:35:00
4:55 PM,55.4,41.0,58,30.22,10.0,East,3.5,-,N/A,,Partly Cloudy,100,2013-01-08 22:55:00
5:15 PM,55.4,39.2,54,30.22,10.0,Calm,Calm,-,N/A,,Mostly Cloudy,0,2013-01-08 23:15:00
5:35 PM,55.4,39.2,54,30.22,10.0,Calm,Calm,-,N/A,,Mostly Cloudy,0,2013-01-08 23:35:00
5:55 PM,55.4,39.2,54,30.21,10.0,Calm,Calm,-,N/A,,Partly Cloudy,0,2013-01-08 23:55:00
6:15 PM,53.6,37.4,54,30.21,10.0,Calm,Calm,-,N/A,,Clear,0,2013-01-09 00:15:00
6:35 PM,53.6,39.2,58,30.22,10.0,East,3.5,-,N/A,,Clear,100,2013-01-09 00:35:00
6:55 PM,53.6,39.2,58,30.22,10.0,ESE,3.5,-,N/A,,Clear,110,2013-01-09 00:55:00
7:15 PM,53.6,41.0,62,30.22,10.0,SE,3.5,-,N/A,,Clear,130,2013-01-09 01:15:00
7:35 PM,53.6,41.0,62,30.22,10.0,SE,3.5,-,N/A,,Clear,140,2013-01-09 01:35:00
7:55 PM,53.6,42.8,67,30.21,10.0,SE,5.8,-,N/A,,Clear,140,2013-01-09 01:55:00
8:15 PM,55.4,42.8,63,30.21,10.0,SE,5.8,-,N/A,,Clear,140,2013-01-09 02:15:00
8:35 PM,55.4,42.8,63,30.20,10.0,SE,4.6,-,N/A,,Clear,130,2013-01-09 02:35:00
8:55 PM,55.4,42.8,63,30.20,10.0,SSE,5.8,-,N/A,,Mostly Cloudy,150,2013-01-09 02:55:00
9:15 PM,55.4,42.8,63,30.20,10.0,SSE,5.8,-,N/A,,Mostly Cloudy,150,2013-01-09 03:15:00
9:35 PM,55.4,44.6,67,30.20,10.0,SSE,4.6,-,N/A,,Overcast,150,2013-01-09 03:35:00
9:55 PM,55.4,44.6,67,30.21,10.0,SE,5.8,-,N/A,,Scattered Clouds,140,2013-01-09 03:55:00
10:15 PM,55.4,44.6,67,30.22,10.0,Calm,Calm,-,N/A,,Partly Cloudy,0,2013-01-09 04:15:00
10:35 PM,55.4,44.6,67,30.23,10.0,SSE,4.6,-,N/A,,Mostly Cloudy,150,2013-01-09 04:35:00
10:55 PM,57.2,44.6,63,30.24,10.0,Calm,Calm,-,N/A,,Overcast,0,2013-01-09 04:55:00
11:15 PM,57.2,44.6,63,30.25,10.0,Calm,Calm,-,N/A,,Overcast,0,2013-01-09 05:15:00
11:35 PM,57.2,44.6,63,30.25,10.0,Calm,Calm,-,N/A,,Overcast,0,2013-01-09 05:35:00